This demonstration page uses our WeatherBlox Daily Observations layout. Learn more.

Hourly Observations for January 27, 2019

Temp ( °F °C ) Dew Point ( °F °C ) Humidity (%) Winds ( mph kmh ) Pressure ( in mb ) Visibility ( mi km ) Precip ( " mm )
12:15 am 00:15 Cloudy 31 -0.5 28 -2.1 89 89 WSW 5 7 30.18 1022 10 16.09344 0 0
12:35 am 00:35 Cloudy 32 -0.1 29 -1.7 89 89 WSW 5 7 30.15 1021 10 16.09344 0 0
12:55 am 00:55 Cloudy 33 0.3 29 -1.5 88 88 SW 7 11 30.15 1021 10 16.09344 0 0
1:15 am 01:15 Cloudy 33 0.8 30 -1 88 88 WSW 7 11 30.15 1021 10 16.09344 0 0
1:35 am 01:35 Cloudy 34 1 30 -1 87 87 SW 7 11 30.12 1020 10 16.09344 0 0
1:55 am 01:55 Partly Cloudy 33 0.3 30 -1.3 89 89 WSW 6 9 30.15 1021 10 16.09344 0 0
2:15 am 02:15 Mostly Cloudy 32 0.2 29 -1.4 89 89 WSW 6 9 30.15 1021 10 16.09344 0 0
2:35 am 02:35 Mostly Cloudy 33 0.5 30 -1.2 89 89 WSW 6 9 30.15 1021 10 16.09344 0 0
2:55 am 02:55 Mostly Cloudy 33 0.8 30 -1 88 88 WSW 6 9 30.15 1021 10 16.09344 0 0
3:15 am 03:15 Cloudy 34 1.2 31 -0.8 87 87 WSW 7 11 30.12 1020 10 16.09344 0 0
3:35 am 03:35 Cloudy 35 1.5 31 -0.6 86 86 WSW 8 13 30.09 1019 10 16.09344 0 0
3:55 am 03:55 Cloudy 35 1.5 31 -0.7 85 85 WSW 6 9 30.09 1019 10 16.09344 0 0
4:15 am 04:15 Cloudy 36 2.1 31 -0.6 83 83 WSW 8 13 30.06 1018 10 16.09344 0 0
4:35 am 04:35 Cloudy 36 2.3 31 -0.5 82 82 WSW 10 17 30.06 1018 10 16.09344 0 0
4:55 am 04:55 Cloudy 37 2.6 31 -0.6 80 80 WSW 12 19 30.06 1018 10 16.09344 0 0
5:15 am 05:15 Cloudy 37 2.5 31 -0.6 80 80 WSW 10 17 30.06 1018 10 16.09344 0 0
5:35 am 05:35 Cloudy 37 2.5 31 -0.6 80 80 WSW 9 15 30.03 1017 10 16.09344 0 0
5:55 am 05:55 Cloudy 37 2.5 31 -0.6 80 80 WSW 7 11 30.03 1017 10 16.09344 0 0
6:15 am 06:15 Cloudy 37 2.5 31 -0.6 80 80 WSW 5 7 30.03 1017 10 16.09344 0 0
6:35 am 06:35 Cloudy 36 2.2 31 -0.6 82 82 WSW 5 7 30.03 1017 10 16.09344 0 0
6:55 am 06:55 Cloudy 36 2.1 31 -0.6 83 83 W 6 9 30 1016 10 16.09344 0 0
7:15 am 07:15 Cloudy 37 2.5 31 -0.8 79 79 W 7 11 30 1016 10 16.09344 0 0
7:35 am 07:35 Cloudy 37 2.6 30 -1 77 77 W 7 11 30 1016 10 16.09344 0 0
7:55 am 07:55 Cloudy 37 2.5 30 -1.1 77 77 W 6 9 30 1016 10 16.09344 0 0
8:15 am 08:15 Cloudy 37 2.6 30 -1.1 77 77 W 5 7 30 1016 10 16.09344 0 0
8:35 am 08:35 Cloudy 37 2.6 30 -1 77 77 WSW 5 7 30 1016 10 16.09344 0 0
8:55 am 08:55 Cloudy 38 3.1 31 -0.5 77 77 W 3 6 29.97 1015 10 16.09344 0 0
9:15 am 09:15 Cloudy 39 3.9 31 -0.5 73 73 WSW 5 7 29.94 1014 10 16.09344 0 0
9:35 am 09:35 Partly Cloudy 41 5 32 -0.2 69 69 SW 6 9 29.94 1014 10 16.09344 0 0
9:55 am 09:55 Mostly Cloudy 43 6.3 31 -0.5 62 62 WSW 7 11 29.91 1013 10 16.09344 0 0
10:15 am 10:15 Partly Cloudy 46 8 31 -0.7 55 55 W 9 15 29.91 1013 10 16.09344 0 0
10:35 am 10:35 Sunny 48 8.7 30 -1 51 51 W 8 13 29.85 1011 10 16.09344 0 0
10:55 am 10:55 Sunny 47 8.4 31 -0.4 54 54 WSW 5 7 29.88 1012 10 16.09344 0 0
11:15 am 11:15 Sunny 48 8.9 31 -0.3 53 53 WSW 5 7 29.85 1011 10 16.09344 0 0
11:35 am 11:35 Sunny 51 10.7 31 -0.7 46 46 WSW 9 15 29.83 1010 10 16.09344 0 0
11:55 am 11:55 Sunny 51 10.7 31 -0.8 45 45 WSW 10 17 29.83 1010 10 16.09344 0 0
12:15 pm 12:15 Mostly Cloudy 53 11.7 30 -0.9 42 42 WSW 12 19 29.77 1008 10 16.09344 0 0
12:35 pm 12:35 Cloudy 52 11.3 30 -1 43 43 W 12 19 29.74 1007 10 16.09344 0 0
12:55 pm 12:55 Cloudy 53 11.7 30 -1 42 42 W 12 19 29.74 1007 10 16.09344 0 0
1:15 pm 13:15 Cloudy 53 11.9 30 -1.1 41 41 W 13 20 29.71 1006 10 16.09344 0 0
1:35 pm 13:35 Partly Cloudy 54 12.3 30 -0.9 40 40 W 18 30 29.71 1006 10 16.09344 0 0
1:55 pm 13:55 Sunny 55 12.8 31 -0.7 40 40 WSW 13 20 29.68 1005 10 16.09344 0 0
2:15 pm 14:15 Sunny 57 13.7 31 -0.3 38 38 WSW 15 24 29.65 1004 10 16.09344 0 0
2:35 pm 14:35 Sunny 58 14.2 31 -0.8 36 36 WSW 17 28 29.65 1004 10 16.09344 0 0
2:55 pm 14:55 Sunny 58 14.2 31 -0.7 36 36 WSW 14 22 29.62 1003 10 16.09344 0 0
3:15 pm 15:15 Sunny 58 14.5 31 -0.6 36 36 SW 15 24 29.62 1003 10 16.09344 0 0
3:35 pm 15:35 Sunny 57 14.1 31 -0.4 37 37 SW 14 22 29.59 1002 10 16.09344 0 0
3:55 pm 15:55 Sunny 57 13.9 30 -0.9 36 36 SW 15 24 29.59 1002 10 16.09344 0 0
4:15 pm 16:15 Sunny 56 13.5 30 -0.9 37 37 SW 14 22 29.56 1001 10 16.09344 0 0
4:35 pm 16:35 Mostly Cloudy 55 13 31 -0.5 40 40 SW 9 15 29.56 1001 10 16.09344 0 0
4:55 pm 16:55 Cloudy 54 12.2 32 -0.1 43 43 SW 6 9 29.59 1002 10 16.09344 0 0
5:15 pm 17:15 Cloudy 53 11.6 31 -0.3 44 44 SSW 5 7 29.56 1001 10 16.09344 0 0
5:35 pm 17:35 Cloudy 50 10 32 0 50 50 SSW 9 15 29.56 1001 10 16.09344 0 0
5:55 pm 17:55 Cloudy 51 10.8 32 0 48 48 SW 10 17 29.56 1001 10 16.09344 0 0
6:15 pm 18:15 Cloudy 49 9.6 32 -0.1 51 51 SW 9 15 29.56 1001 10 16.09344 0 0
6:35 pm 18:35 Mostly Cloudy 46 7.5 31 -0.6 57 57 W 9 15 29.59 1002 10 16.09344 0 0
6:55 pm 18:55 Partly Cloudy 46 7.8 30 -1.2 53 53 NW 9 15 29.59 1002 10 16.09344 0 0
7:15 pm 19:15 Mostly Cloudy 46 7.8 30 -1 54 54 NW 5 7 29.59 1002 10 16.09344 0 0
7:35 pm 19:35 Cloudy 48 8.8 30 -1.1 50 50 W 9 15 29.59 1002 10 16.09344 0 0
7:55 pm 19:55 Cloudy 49 9.4 30 -1 49 49 W 12 19 29.56 1001 10 16.09344 0 0
8:15 pm 20:15 Cloudy 49 9.7 31 -0.7 49 49 W 13 20 29.56 1001 10 16.09344 0 0
8:35 pm 20:35 Cloudy 53 11.4 31 -0.5 44 44 WNW 16 26 29.59 1002 10 16.09344 0 0
8:55 pm 20:55 Mostly Cloudy 51 10.4 32 -0.1 48 48 WNW 16 26 29.59 1002 10 16.09344 0 0
9:15 pm 21:15 Mostly Cloudy 50 9.8 32 0 51 51 NW 17 28 29.62 1003 10 16.09344 0 0
9:35 pm 21:35 Mostly Cloudy 47 8.6 32 0 55 55 NNW 22 35 29.68 1005 10 16.09344 0 0
9:55 pm 21:55 Mostly Cloudy 48 8.8 33 0.5 56 56 NNW 22 35 29.68 1005 10 16.09344 0 0
10:15 pm 22:15 Cloudy 47 8.3 34 1.1 61 61 NNW 24 39 29.68 1005 10 16.09344 0 0
10:35 pm 22:35 Cloudy 46 7.6 34 0.9 63 63 NNW 31 50 29.71 1006 10 16.09344 0 0
10:55 pm 22:55 Cloudy 44 6.4 32 0.2 65 65 NNW 21 33 29.74 1007 10 16.09344 0 0
11:15 pm 23:15 Cloudy 42 5.8 32 -0.2 66 66 NNW 16 26 29.74 1007 10 16.09344 0 0
11:35 pm 23:35 Cloudy 42 5.4 31 -0.6 66 66 NNW 18 30 29.74 1007 10 16.09344 0 0
11:55 pm 23:55 Cloudy 41 4.9 31 -0.7 67 67 NNW 18 30 29.77 1008 10 16.09344 0 0

Powered by AerisWeather